User: anonymous   Login
Location: Arrodets-la-Barthe
(43.0306°N, 0.2829°E)
Time: 11:28:03
(UTC+00:00)
Language:

Cosmos 2278 - Orbit

View from above orbital plane
View from above orbital plane
View from above satellite
View from above satellite

Ground track
Ground track

The orbit data is extracted from the following two-line orbital elements,

1 23087U 94023A   22025.83819695  .00000021  00000-0  35693-4 0  9991
2 23087  71.0525  79.8868 0008876 179.4307 180.6827 14.13839402432217
Epoch (UTC): 25 January 2022 20:07:00
Eccentricity: 0.0008876
inclination: 71.0525°
perigee height: 840 km
apogee height: 852 km
right ascension of ascending node: 79.8868°
argument of perigee: 179.4307°
revolutions per day: 14.13839402
mean anomaly at epoch: 180.6827°
orbit number at epoch: 43221

The dashed part of the orbit path shows where the satellite is in the earth's shadow,  

DLR